Погода в Канаш

Россия / Тюменская область     57°35′40″N   65°38′00″E
темп.,
°C
ветер,
м/с
пор.,
м/с
влажн.,
%
обл.,
%
осадки,
мм/ч
давл.,
гПа
погр.,
м
13 мая, чт
чт1323:00+14з1158100 0.0 102511
02:00+15зюз3954100 0.0 1024231
05:00+14з4126130 0.0 1024277
08:00+18зсз48525 0.0 1023387
11:00+24сз583832 0.0 10221851
14:00+27ссз58309 0.0 10222849
17:00+25ссв683729 0.0 10221720
20:00+21с37490 0.0 1024238
14 мая, пт
пт1423:00+16всв27649 0.0 1025129
02:00+14вюв23575 0.0 102659
05:00+13ююв23595 0.0 102760
08:00+19ююз355756 0.0 1026351
11:00+25юз46395 0.0 10251071
14:00+29з47255 0.0 10222907
17:00+29зсз492413 0.0 10213195
20:00+24з23375 0.0 102055
15 мая, сб
сб1523:00+20зюз33413 0.0 102044
02:00+18з36475 0.0 102087
05:00+17з38565 0.0 1020125
08:00+23з47475 0.0 1020354
11:00+28з69315 0.0 10191864
14:00+30з6102327 0.0 10172817
17:00+30з611265 0.0 10163424
20:00+25з393857 0.0 1015198
16 мая, вс
вс1623:00+17в138291 2.9 101770
02:00+16зюз358397 0.1 101788
05:00+16з238093 0.1 101866
08:00+22з375725 0.0 1018366
11:00+27зюз583527 0.0 10161272
14:00+30з61025100 0.0 10152066
17:00+31з511215 0.0 10143656
20:00+26з39315 0.0 1013185
17 мая, пн
пн1723:00+21з314415 0.0 1013260
02:00+19з312474 0.0 1013246
05:00+18з312540 0.0 1014260
08:00+23з4746100 0.0 1014344
11:00+28з59315 0.0 10132650
14:00+30з5922100 0.0 10113740
17:00+19ююв2366100 2.6 101170
20:00+17ссв6108272 1.7 1013516